{"data":{"norad_id":63843,"epoch":"2026-05-24T23:38:47.607072Z","epoch_age_seconds":87068,"freshness":"FRESH","line1":"1 63843U 25093H   26144.98527323  .00027334  00000+0  99828-3 0  9996","line2":"2 63843  43.0034   6.7598 0001526 277.3441  82.7237 15.27608587 59649","mean_motion":15.27608587,"eccentricity":0.0001526,"inclination_deg":43.0034,"raan_deg":6.7598,"arg_perigee_deg":277.3441,"mean_anomaly_deg":82.7237,"bstar":0.00099828,"rev_number":5964,"period_min":94.264984646882,"perigee_km":481.9164936765,"apogee_km":484.01050154837,"semimajor_km":6861.1004976124,"source":"CELESTRAK","updated_at":"2026-05-25T13:38:20.147308Z"}}